"Sample Date","Sample Time","Sample Value","Units","Flow Rate","Sample Interval","Number Channels","Micron Size 0","Counts/Channel 0","Micron Size 1","Counts/Channel 1","Micron Size 2","Counts/Channel 2","Micron Size 3","Counts/Channel 3","Micron Size 4","Counts/Channel 4","Micron Size 5","Counts/Channel 5","Micron Size 6","Counts/Channel 6","Micron Size 7","Counts/Channel 7","Micron Size 8","Counts/Channel 8","Micron Size 9","Counts/Channel 9","Micron Size 10","Counts/Channel 10","Micron Size 11","Counts/Channel 11","Micron Size 12","Counts/Channel 12","Micron Size 13","Counts/Channel 13","Micron Size 14","Counts/Channel 14","Micron Size 15","Counts/Channel 15","Micron Size 16","Counts/Channel 16","Micron Size 17","Counts/Channel 17","Micron Size 18","Counts/Channel 18","Micron Size 19","Counts/Channel 19","Micron Size 20","Counts/Channel 20","Micron Size 21","Counts/Channel 21","Micron Size 22","Counts/Channel 22","Micron Size 23","Counts/Channel 23","Micron Size 24","Counts/Channel 24","Micron Size 25","Counts/Channel 25","Micron Size 26","Counts/Channel 26","Micron Size 27","Counts/Channel 27","Micron Size 28","Counts/Channel 28","Micron Size 29","Counts/Channel 29","Micron Size 30","Counts/Channel 30","Micron Size 31","Counts/Channel 31"
"04/09/08","15:00:01",27737.000,"cc",28305.809,6.00,6,0.100,19249.000,0.200,3602.000,0.300,1815.000,0.500,2148.000,1.000,923.000,5.000,0
"04/09/08","15:00:07",27679.000,"cc",28326.287,6.00,6,0.100,19076.000,0.200,3666.000,0.300,1807.000,0.500,2196.000,1.000,934.000,5.000,0
"04/09/08","15:00:13",28225.000,"cc",28287.506,6.00,6,0.100,19703.000,0.200,3693.000,0.300,1828.000,0.500,2100.000,1.000,901.000,5.000,0
"04/09/08","15:00:19",28129.000,"cc",28280.994,6.00,6,0.100,19446.000,0.200,3669.000,0.300,1886.000,0.500,2143.000,1.000,985.000,5.000,0
"04/09/08","15:00:25",27661.000,"cc",28286.420,6.00,6,0.100,19220.000,0.200,3536.000,0.300,1860.000,0.500,2140.000,1.000,905.000,5.000,0
"04/09/08","15:00:31",27687.000,"cc",28305.098,6.00,6,0.100,19287.000,0.200,3524.000,0.300,1761.000,0.500,2180.000,1.000,935.000,5.000,0
"04/09/08","15:00:37",27961.000,"cc",28332.787,6.00,6,0.100,19500.000,0.200,3619.000,0.300,1792.000,0.500,2058.000,1.000,992.000,5.000,0
"04/09/08","15:00:43",27575.000,"cc",28285.736,6.00,6,0.100,19239.000,0.200,3559.000,0.300,1781.000,0.500,2083.000,1.000,913.000,5.000,0
"04/09/08","15:00:49",27751.000,"cc",28235.830,6.00,6,0.100,19360.000,0.200,3629.000,0.300,1803.000,0.500,2087.000,1.000,872.000,5.000,0
"04/09/08","15:00:55",28287.000,"cc",28320.967,6.00,6,0.100,19730.000,0.200,3678.000,0.300,1848.000,0.500,2128.000,1.000,901.000,5.000,2.000
"04/09/08","15:01:01",28059.000,"cc",28350.000,6.00,6,0.100,19533.000,0.200,3649.000,0.300,1768.000,0.500,2185.000,1.000,924.000,5.000,0
"04/09/08","15:01:07",28148.000,"cc",28430.065,6.00,6,0.100,19546.000,0.200,3636.000,0.300,1777.000,0.500,2217.000,1.000,972.000,5.000,0
"04/09/08","15:01:13",27877.000,"cc",28268.428,6.00,6,0.100,19502.000,0.200,3484.000,0.300,1836.000,0.500,2130.000,1.000,925.000,5.000,0
"04/09/08","15:01:19",27934.000,"cc",28292.943,6.00,6,0.100,19603.000,0.200,3634.000,0.300,1757.000,0.500,2037.000,1.000,902.000,5.000,1.000
"04/09/08","15:01:25",27772.000,"cc",28347.094,6.00,6,0.100,19677.000,0.200,3474.000,0.300,1716.000,0.500,2013.000,1.000,892.000,5.000,0
"04/09/08","15:01:31",27963.000,"cc",28384.949,6.00,6,0.100,19729.000,0.200,3520.000,0.300,1791.000,0.500,2031.000,1.000,892.000,5.000,0
"04/09/08","15:01:37",27945.000,"cc",28411.900,6.00,6,0.100,19690.000,0.200,3563.000,0.300,1712.000,0.500,2101.000,1.000,876.000,5.000,3.000
"04/09/08","15:01:43",27704.000,"cc",28238.328,6.00,6,0.100,19558.000,0.200,3516.000,0.300,1679.000,0.500,2045.000,1.000,906.000,5.000,0
"04/09/08","15:01:49",28225.000,"cc",28221.469,6.00,6,0.100,19941.000,0.200,3573.000,0.300,1761.000,0.500,2074.000,1.000,876.000,5.000,0
"04/09/08","15:01:55",28322.000,"cc",28348.520,6.00,6,0.100,19875.000,0.200,3613.000,0.300,1782.000,0.500,2113.000,1.000,938.000,5.000,1.000
"04/09/08","15:02:01",27995.000,"cc",28245.844,6.00,6,0.100,19768.000,0.200,3580.000,0.300,1772.000,0.500,1992.000,1.000,883.000,5.000,0
"04/09/08","15:02:07",28247.000,"cc",28342.363,6.00,6,0.100,19838.000,0.200,3596.000,0.300,1754.000,0.500,2120.000,1.000,937.000,5.000,2.000
"04/09/08","15:02:13",28341.000,"cc",28320.381,6.00,6,0.100,19939.000,0.200,3609.000,0.300,1786.000,0.500,2126.000,1.000,880.000,5.000,1.000
"04/09/08","15:02:19",28442.000,"cc",28411.500,6.00,6,0.100,19923.000,0.200,3661.000,0.300,1776.000,0.500,2173.000,1.000,907.000,5.000,2.000
"04/09/08","15:02:25",28851.000,"cc",28368.482,6.00,6,0.100,20067.000,0.200,3761.000,0.300,1853.000,0.500,2212.000,1.000,957.000,5.000,1.000
"04/09/08","15:02:31",28218.000,"cc",28227.100,6.00,6,0.100,19645.000,0.200,3675.000,0.300,1802.000,0.500,2112.000,1.000,984.000,5.000,0
"04/09/08","15:02:37",28311.000,"cc",28218.285,6.00,6,0.100,19853.000,0.200,3561.000,0.300,1872.000,0.500,2106.000,1.000,918.000,5.000,1.000
"04/09/08","15:02:43",28121.000,"cc",28220.635,6.00,6,0.100,19748.000,0.200,3558.000,0.300,1816.000,0.500,2143.000,1.000,856.000,5.000,0
"04/09/08","15:02:49",28165.000,"cc",28349.527,6.00,6,0.100,19624.000,0.200,3639.000,0.300,1835.000,0.500,2166.000,1.000,901.000,5.000,0
"04/09/08","15:02:55",28240.000,"cc",28418.074,6.00,6,0.100,19578.000,0.200,3660.000,0.300,1861.000,0.500,2207.000,1.000,934.000,5.000,0
"04/09/08","15:03:01",28306.000,"cc",28216.766,6.00,6,0.100,19738.000,0.200,3661.000,0.300,1848.000,0.500,2134.000,1.000,925.000,5.000,0
"04/09/08","15:03:07",28360.000,"cc",28353.031,6.00,6,0.100,19657.000,0.200,3656.000,0.300,1873.000,0.500,2210.000,1.000,964.000,5.000,0
"04/09/08","15:03:13",27650.000,"cc",28270.488,6.00,6,0.100,19156.000,0.200,3628.000,0.300,1772.000,0.500,2129.000,1.000,965.000,5.000,0
"04/09/08","15:03:19",27876.000,"cc",28301.549,6.00,6,0.100,19301.000,0.200,3590.000,0.300,1902.000,0.500,2196.000,1.000,886.000,5.000,1.000
"04/09/08","15:03:25",28158.000,"cc",28352.953,6.00,6,0.100,19586.000,0.200,3575.000,0.300,1913.000,0.500,2234.000,1.000,850.000,5.000,0
"04/09/08","15:03:31",27560.000,"cc",28336.065,6.00,6,0.100,19109.000,0.200,3659.000,0.300,1836.000,0.500,2056.000,1.000,900.000,5.000,0
"04/09/08","15:03:37",27974.000,"cc",28466.912,6.00,6,0.100,19477.000,0.200,3627.000,0.300,1855.000,0.500,2082.000,1.000,933.000,5.000,0
"04/09/08","15:03:43",27899.000,"cc",28227.721,6.00,6,0.100,19243.000,0.200,3556.000,0.300,2001.000,0.500,2158.000,1.000,940.000,5.000,1.000
"04/09/08","15:03:49",27640.000,"cc",28216.422,6.00,6,0.100,19071.000,0.200,3614.000,0.300,1844.000,0.500,2174.000,1.000,937.000,5.000,0
"04/09/08","15:03:55",27729.000,"cc",28276.387,6.00,6,0.100,19157.000,0.200,3559.000,0.300,1863.000,0.500,2187.000,1.000,963.000,5.000,0
"04/09/08","15:04:01",27811.000,"cc",28309.930,6.00,6,0.100,19284.000,0.200,3605.000,0.300,1803.000,0.500,2149.000,1.000,969.000,5.000,1.000
"04/09/08","15:04:07",27670.000,"cc",28348.570,6.00,6,0.100,19098.000,0.200,3667.000,0.300,1858.000,0.500,2153.000,1.000,894.000,5.000,0
"04/09/08","15:04:13",27923.000,"cc",28401.246,6.00,6,0.100,19279.000,0.200,3617.000,0.300,1823.000,0.500,2267.000,1.000,937.000,5.000,0
"04/09/08","15:04:19",28646.000,"cc",28371.293,6.00,6,0.100,19871.000,0.200,3713.000,0.300,1874.000,0.500,2275.000,1.000,913.000,5.000,0
"04/09/08","15:04:25",27988.000,"cc",28333.191,6.00,6,0.100,19270.000,0.200,3674.000,0.300,1974.000,0.500,2176.000,1.000,894.000,5.000,0
"04/09/08","15:04:31",27961.000,"cc",28281.775,6.00,6,0.100,19341.000,0.200,3628.000,0.300,1816.000,0.500,2187.000,1.000,989.000,5.000,0
"04/09/08","15:04:37",27721.000,"cc",28252.135,6.00,6,0.100,19111.000,0.200,3684.000,0.300,1869.000,0.500,2149.000,1.000,907.000,5.000,1.000
"04/09/08","15:04:43",28221.000,"cc",28235.348,6.00,6,0.100,19734.000,0.200,3638.000,0.300,1802.000,0.500,2139.000,1.000,907.000,5.000,1.000
"04/09/08","15:04:49",28088.000,"cc",28207.984,6.00,6,0.100,19399.000,0.200,3714.000,0.300,1881.000,0.500,2205.000,1.000,889.000,5.000,0
"04/09/08","15:04:55",28056.000,"cc",28302.627,6.00,6,0.100,19444.000,0.200,3648.000,0.300,1878.000,0.500,2140.000,1.000,946.000,5.000,0
"04/09/08","15:05:01",27883.000,"cc",28430.135,6.00,6,0.100,19203.000,0.200,3646.000,0.300,1911.000,0.500,2227.000,1.000,896.000,5.000,0
"04/09/08","15:05:07",27448.000,"cc",28272.320,6.00,6,0.100,18963.000,0.200,3555.000,0.300,1822.000,0.500,2196.000,1.000,912.000,5.000,0
"04/09/08","15:05:13",28119.000,"cc",28305.066,6.00,6,0.100,19371.000,0.200,3730.000,0.300,1854.000,0.500,2243.000,1.000,921.000,5.000,0
"04/09/08","15:05:19",27696.000,"cc",28282.594,6.00,6,0.100,19041.000,0.200,3694.000,0.300,1856.000,0.500,2157.000,1.000,948.000,5.000,0
"04/09/08","15:05:25",27769.000,"cc",28355.084,6.00,6,0.100,19278.000,0.200,3577.000,0.300,1862.000,0.500,2143.000,1.000,909.000,5.000,0
"04/09/08","15:05:31",27710.000,"cc",28479.311,6.00,6,0.100,18919.000,0.200,3744.000,0.300,1908.000,0.500,2169.000,1.000,970.000,5.000,0
"04/09/08","15:05:37",27388.000,"cc",28294.971,6.00,6,0.100,18964.000,0.200,3518.000,0.300,1870.000,0.500,2091.000,1.000,945.000,5.000,0
"04/09/08","15:05:43",27906.000,"cc",28288.979,6.00,6,0.100,19226.000,0.200,3619.000,0.300,1870.000,0.500,2219.000,1.000,972.000,5.000,0
"04/09/08","15:05:49",27675.000,"cc",28252.625,6.00,6,0.100,19236.000,0.200,3517.000,0.300,1826.000,0.500,2167.000,1.000,928.000,5.000,1.000
"04/09/08","15:05:55",27583.000,"cc",28251.088,6.00,6,0.100,19294.000,0.200,3435.000,0.300,1851.000,0.500,2061.000,1.000,942.000,5.000,0
"04/09/08","15:06:01",27816.000,"cc",28361.410,6.00,6,0.100,19441.000,0.200,3555.000,0.300,1819.000,0.500,2113.000,1.000,888.000,5.000,0
"04/09/08","15:06:07",27595.000,"cc",28334.127,6.00,6,0.100,19265.000,0.200,3562.000,0.300,1790.000,0.500,2064.000,1.000,913.000,5.000,1.000
"04/09/08","15:06:13",27766.000,"cc",28318.270,6.00,6,0.100,19453.000,0.200,3520.000,0.300,1863.000,0.500,2034.000,1.000,893.000,5.000,3.000
"04/09/08","15:06:19",27355.000,"cc",28355.791,6.00,6,0.100,19031.000,0.200,3550.000,0.300,1796.000,0.500,2109.000,1.000,868.000,5.000,1.000
"04/09/08","15:06:25",27167.000,"cc",28381.826,6.00,6,0.100,19086.000,0.200,3432.000,0.300,1690.000,0.500,2077.000,1.000,881.000,5.000,1.000
"04/09/08","15:06:31",27048.000,"cc",28390.326,6.00,6,0.100,18920.000,0.200,3492.000,0.300,1781.000,0.500,2012.000,1.000,842.000,5.000,1.000
"04/09/08","15:06:37",26955.000,"cc",28372.207,6.00,6,0.100,18970.000,0.200,3453.000,0.300,1701.000,0.500,1976.000,1.000,855.000,5.000,0
"04/09/08","15:06:43",27184.000,"cc",28179.539,6.00,6,0.100,19205.000,0.200,3451.000,0.300,1648.000,0.500,1997.000,1.000,883.000,5.000,0
"04/09/08","15:06:49",27605.000,"cc",28309.027,6.00,6,0.100,19208.000,0.200,3608.000,0.300,1851.000,0.500,2040.000,1.000,897.000,5.000,1.000
"04/09/08","15:06:55",27731.000,"cc",28376.119,6.00,6,0.100,19439.000,0.200,3559.000,0.300,1716.000,0.500,2133.000,1.000,884.000,5.000,0
"04/09/08","15:07:01",27323.000,"cc",28256.551,6.00,6,0.100,19114.000,0.200,3451.000,0.300,1747.000,0.500,2107.000,1.000,903.000,5.000,1.000
"04/09/08","15:07:07",27641.000,"cc",28231.518,6.00,6,0.100,19181.000,0.200,3579.000,0.300,1801.000,0.500,2115.000,1.000,965.000,5.000,0
"04/09/08","15:07:13",27609.000,"cc",28178.070,6.00,6,0.100,19221.000,0.200,3566.000,0.300,1801.000,0.500,2118.000,1.000,902.000,5.000,1.000
"04/09/08","15:07:19",27253.000,"cc",28350.557,6.00,6,0.100,18992.000,0.200,3514.000,0.300,1807.000,0.500,2075.000,1.000,865.000,5.000,0
"04/09/08","15:07:25",27236.000,"cc",28318.004,6.00,6,0.100,19084.000,0.200,3504.000,0.300,1748.000,0.500,2074.000,1.000,826.000,5.000,0
"04/09/08","15:07:31",27909.000,"cc",28194.877,6.00,6,0.100,19352.000,0.200,3662.000,0.300,1815.000,0.500,2197.000,1.000,882.000,5.000,1.000
"04/09/08","15:07:37",27754.000,"cc",28352.246,6.00,6,0.100,19321.000,0.200,3653.000,0.300,1798.000,0.500,2087.000,1.000,895.000,5.000,0
"04/09/08","15:07:43",27494.000,"cc",28301.588,6.00,6,0.100,19006.000,0.200,3496.000,0.300,1898.000,0.500,2168.000,1.000,926.000,5.000,0
"04/09/08","15:07:49",27197.000,"cc",28323.336,6.00,6,0.100,18986.000,0.200,3497.000,0.300,1771.000,0.500,2081.000,1.000,861.000,5.000,1.000
"04/09/08","15:07:55",27334.000,"cc",28286.326,6.00,6,0.100,18851.000,0.200,3564.000,0.300,1827.000,0.500,2159.000,1.000,933.000,5.000,0
"04/09/08","15:08:01",27349.000,"cc",28293.809,6.00,6,0.100,19045.000,0.200,3605.000,0.300,1778.000,0.500,2029.000,1.000,892.000,5.000,0
"04/09/08","15:08:07",27843.000,"cc",28357.670,6.00,6,0.100,19304.000,0.200,3576.000,0.300,1833.000,0.500,2207.000,1.000,923.000,5.000,0
"04/09/08","15:08:13",27446.000,"cc",28341.188,6.00,6,0.100,19140.000,0.200,3576.000,0.300,1766.000,0.500,2061.000,1.000,902.000,5.000,1.000
"04/09/08","15:08:19",27319.000,"cc",28269.969,6.00,6,0.100,19028.000,0.200,3587.000,0.300,1773.000,0.500,2077.000,1.000,854.000,5.000,0
"04/09/08","15:08:25",27641.000,"cc",28288.432,6.00,6,0.100,19270.000,0.200,3543.000,0.300,1840.000,0.500,2092.000,1.000,895.000,5.000,1.000
"04/09/08","15:08:31",27537.000,"cc",28223.514,6.00,6,0.100,19181.000,0.200,3544.000,0.300,1901.000,0.500,2046.000,1.000,864.000,5.000,1.000
"04/09/08","15:08:37",27531.000,"cc",28421.549,6.00,6,0.100,19013.000,0.200,3525.000,0.300,1922.000,0.500,2164.000,1.000,907.000,5.000,0
"04/09/08","15:08:43",27789.000,"cc",28338.203,6.00,6,0.100,19095.000,0.200,3640.000,0.300,1889.000,0.500,2222.000,1.000,943.000,5.000,0
"04/09/08","15:08:49",27923.000,"cc",28325.699,6.00,6,0.100,19327.000,0.200,3586.000,0.300,1860.000,0.500,2252.000,1.000,897.000,5.000,1.000
"04/09/08","15:08:55",28083.000,"cc",28208.670,6.00,6,0.100,19344.000,0.200,3598.000,0.300,1966.000,0.500,2216.000,1.000,958.000,5.000,1.000
"04/09/08","15:09:01",27836.000,"cc",28414.752,6.00,6,0.100,19174.000,0.200,3546.000,0.300,1904.000,0.500,2294.000,1.000,918.000,5.000,0
"04/09/08","15:09:07",27268.000,"cc",28369.629,6.00,6,0.100,18885.000,0.200,3499.000,0.300,1835.000,0.500,2129.000,1.000,920.000,5.000,0
"04/09/08","15:09:13",26983.000,"cc",28300.816,6.00,6,0.100,18812.000,0.200,3438.000,0.300,1817.000,0.500,1995.000,1.000,920.000,5.000,1.000
"04/09/08","15:09:19",27309.000,"cc",28327.828,6.00,6,0.100,19009.000,0.200,3447.000,0.300,1808.000,0.500,2150.000,1.000,895.000,5.000,0
"04/09/08","15:09:25",27620.000,"cc",28256.725,6.00,6,0.100,19210.000,0.200,3482.000,0.300,1887.000,0.500,2108.000,1.000,933.000,5.000,0
"04/09/08","15:09:31",27144.000,"cc",28295.711,6.00,6,0.100,18906.000,0.200,3429.000,0.300,1828.000,0.500,2074.000,1.000,905.000,5.000,2.000
"04/09/08","15:09:37",27080.000,"cc",28172.631,6.00,6,0.100,18837.000,0.200,3462.000,0.300,1805.000,0.500,2143.000,1.000,833.000,5.000,0
"04/09/08","15:09:43",26966.000,"cc",28281.367,6.00,6,0.100,18758.000,0.200,3411.000,0.300,1788.000,0.500,2146.000,1.000,863.000,5.000,0
"04/09/08","15:09:49",27121.000,"cc",28436.465,6.00,6,0.100,18785.000,0.200,3492.000,0.300,1912.000,0.500,2091.000,1.000,841.000,5.000,0
"04/09/08","15:09:55",27121.000,"cc",28275.670,6.00,6,0.100,18933.000,0.200,3426.000,0.300,1846.000,0.500,2072.000,1.000,844.000,5.000,0
"04/09/08","15:10:01",27198.000,"cc",28216.492,6.00,6,0.100,18876.000,0.200,3508.000,0.300,1851.000,0.500,2088.000,1.000,874.000,5.000,1.000
"04/09/08","15:10:07",27097.000,"cc",28319.539,6.00,6,0.100,18819.000,0.200,3549.000,0.300,1782.000,0.500,2059.000,1.000,887.000,5.000,1.000
"04/09/08","15:10:13",27152.000,"cc",28285.104,6.00,6,0.100,18772.000,0.200,3501.000,0.300,1851.000,0.500,2103.000,1.000,925.000,5.000,0
"04/09/08","15:10:19",26969.000,"cc",28255.463,6.00,6,0.100,18733.000,0.200,3533.000,0.300,1793.000,0.500,2044.000,1.000,865.000,5.000,1.000
"04/09/08","15:10:25",27349.000,"cc",28440.221,6.00,6,0.100,18966.000,0.200,3573.000,0.300,1764.000,0.500,2110.000,1.000,936.000,5.000,0
"04/09/08","15:10:31",27262.000,"cc",28372.381,6.00,6,0.100,18936.000,0.200,3583.000,0.300,1810.000,0.500,2081.000,1.000,852.000,5.000,0
"04/09/08","15:10:37",27070.000,"cc",28198.182,6.00,6,0.100,18916.000,0.200,3502.000,0.300,1744.000,0.500,2020.000,1.000,888.000,5.000,0
"04/09/08","15:10:43",27627.000,"cc",28146.520,6.00,6,0.100,19398.000,0.200,3497.000,0.300,1818.000,0.500,2045.000,1.000,869.000,5.000,0
"04/09/08","15:10:49",27562.000,"cc",28292.861,6.00,6,0.100,19328.000,0.200,3439.000,0.300,1822.000,0.500,2084.000,1.000,889.000,5.000,0
"04/09/08","15:10:55",27061.000,"cc",28402.553,6.00,6,0.100,18787.000,0.200,3533.000,0.300,1754.000,0.500,2070.000,1.000,917.000,5.000,0
"04/09/08","15:11:01",27092.000,"cc",28440.625,6.00,6,0.100,19067.000,0.200,3457.000,0.300,1717.000,0.500,2031.000,1.000,820.000,5.000,0
"04/09/08","15:11:07",27138.000,"cc",28408.002,6.00,6,0.100,19040.000,0.200,3417.000,0.300,1822.000,0.500,2012.000,1.000,844.000,5.000,3.000
"04/09/08","15:11:13",26870.000,"cc",28355.098,6.00,6,0.100,18815.000,0.200,3368.000,0.300,1686.000,0.500,2097.000,1.000,903.000,5.000,1.000
"04/09/08","15:11:19",27117.000,"cc",28233.299,6.00,6,0.100,18914.000,0.200,3468.000,0.300,1785.000,0.500,2096.000,1.000,853.000,5.000,1.000
"04/09/08","15:11:25",26906.000,"cc",28251.869,6.00,6,0.100,18888.000,0.200,3378.000,0.300,1749.000,0.500,2045.000,1.000,846.000,5.000,0
"04/09/08","15:11:31",26960.000,"cc",28371.963,6.00,6,0.100,18912.000,0.200,3428.000,0.300,1743.000,0.500,2047.000,1.000,830.000,5.000,0
"04/09/08","15:11:37",26899.000,"cc",28245.262,6.00,6,0.100,18849.000,0.200,3481.000,0.300,1734.000,0.500,1997.000,1.000,838.000,5.000,0
"04/09/08","15:11:43",26882.000,"cc",28196.012,6.00,6,0.100,18887.000,0.200,3428.000,0.300,1796.000,0.500,1950.000,1.000,820.000,5.000,1.000
"04/09/08","15:11:49",26935.000,"cc",28275.965,6.00,6,0.100,18743.000,0.200,3476.000,0.300,1739.000,0.500,2107.000,1.000,870.000,5.000,0
"04/09/08","15:11:55",27324.000,"cc",28386.871,6.00,6,0.100,19099.000,0.200,3470.000,0.300,1816.000,0.500,2027.000,1.000,912.000,5.000,0
"04/09/08","15:12:01",27484.000,"cc",28413.943,6.00,6,0.100,19234.000,0.200,3411.000,0.300,1814.000,0.500,2093.000,1.000,931.000,5.000,1.000
"04/09/08","15:12:07",27365.000,"cc",28385.584,6.00,6,0.100,19029.000,0.200,3500.000,0.300,1791.000,0.500,2176.000,1.000,868.000,5.000,1.000
"04/09/08","15:12:13",27417.000,"cc",28380.098,6.00,6,0.100,19053.000,0.200,3515.000,0.300,1766.000,0.500,2167.000,1.000,915.000,5.000,1.000
"04/09/08","15:12:19",27466.000,"cc",28339.014,6.00,6,0.100,19224.000,0.200,3509.000,0.300,1735.000,0.500,2129.000,1.000,869.000,5.000,0
"04/09/08","15:12:25",28012.000,"cc",28243.412,6.00,6,0.100,19136.000,0.200,3750.000,0.300,1992.000,0.500,2243.000,1.000,891.000,5.000,0
"04/09/08","15:12:31",27762.000,"cc",28166.654,6.00,6,0.100,19177.000,0.200,3578.000,0.300,1945.000,0.500,2147.000,1.000,915.000,5.000,0
"04/09/08","15:12:37",27757.000,"cc",28306.557,6.00,6,0.100,19172.000,0.200,3641.000,0.300,1862.000,0.500,2161.000,1.000,921.000,5.000,0
"04/09/08","15:12:43",27418.000,"cc",28291.275,6.00,6,0.100,18920.000,0.200,3529.000,0.300,1858.000,0.500,2209.000,1.000,902.000,5.000,0
"04/09/08","15:12:49",28139.000,"cc",28408.492,6.00,6,0.100,19392.000,0.200,3649.000,0.300,1895.000,0.500,2270.000,1.000,932.000,5.000,1.000
"04/09/08","15:12:55",27589.000,"cc",28309.320,6.00,6,0.100,19305.000,0.200,3448.000,0.300,1803.000,0.500,2118.000,1.000,915.000,5.000,0
"04/09/08","15:13:01",27537.000,"cc",28332.533,6.00,6,0.100,19108.000,0.200,3523.000,0.300,1838.000,0.500,2134.000,1.000,932.000,5.000,2.000
"04/09/08","15:13:07",27854.000,"cc",28301.512,6.00,6,0.100,19560.000,0.200,3454.000,0.300,1785.000,0.500,2204.000,1.000,850.000,5.000,1.000
"04/09/08","15:13:13",27064.000,"cc",28368.281,6.00,6,0.100,18916.000,0.200,3437.000,0.300,1822.000,0.500,2020.000,1.000,868.000,5.000,1.000
"04/09/08","15:13:19",27297.000,"cc",28272.664,6.00,6,0.100,19077.000,0.200,3441.000,0.300,1841.000,0.500,2065.000,1.000,873.000,5.000,0
"04/09/08","15:13:25",26950.000,"cc",28288.182,6.00,6,0.100,18765.000,0.200,3461.000,0.300,1776.000,0.500,2106.000,1.000,840.000,5.000,2.000
"04/09/08","15:13:31",27025.000,"cc",28326.900,6.00,6,0.100,18954.000,0.200,3489.000,0.300,1705.000,0.500,2042.000,1.000,835.000,5.000,0
"04/09/08","15:13:37",26719.000,"cc",28357.147,6.00,6,0.100,18780.000,0.200,3350.000,0.300,1717.000,0.500,2025.000,1.000,846.000,5.000,1.000
"04/09/08","15:13:43",26881.000,"cc",28271.570,6.00,6,0.100,18883.000,0.200,3397.000,0.300,1721.000,0.500,2019.000,1.000,861.000,5.000,0
"04/09/08","15:13:49",27372.000,"cc",28298.231,6.00,6,0.100,19116.000,0.200,3475.000,0.300,1764.000,0.500,2142.000,1.000,875.000,5.000,0
"04/09/08","15:13:55",26848.000,"cc",28327.324,6.00,6,0.100,18808.000,0.200,3436.000,0.300,1785.000,0.500,1961.000,1.000,857.000,5.000,1.000
"04/09/08","15:14:01",26983.000,"cc",28194.547,6.00,6,0.100,18850.000,0.200,3496.000,0.300,1718.000,0.500,2073.000,1.000,845.000,5.000,1.000
"04/09/08","15:14:07",27174.000,"cc",28320.506,6.00,6,0.100,19081.000,0.200,3452.000,0.300,1797.000,0.500,2007.000,1.000,837.000,5.000,0
"04/09/08","15:14:13",26734.000,"cc",28386.289,6.00,6,0.100,18769.000,0.200,3297.000,0.300,1762.000,0.500,2080.000,1.000,825.000,5.000,1.000
"04/09/08","15:14:19",26882.000,"cc",28442.787,6.00,6,0.100,18882.000,0.200,3377.000,0.300,1741.000,0.500,2017.000,1.000,865.000,5.000,0
"04/09/08","15:14:25",26909.000,"cc",28195.213,6.00,6,0.100,18798.000,0.200,3397.000,0.300,1783.000,0.500,2022.000,1.000,909.000,5.000,0
"04/09/08","15:14:31",27055.000,"cc",28288.643,6.00,6,0.100,18787.000,0.200,3523.000,0.300,1755.000,0.500,2150.000,1.000,840.000,5.000,0
"04/09/08","15:14:37",27368.000,"cc",28349.252,6.00,6,0.100,19185.000,0.200,3449.000,0.300,1760.000,0.500,2081.000,1.000,892.000,5.000,1.000
"04/09/08","15:14:43",26862.000,"cc",28405.785,6.00,6,0.100,18743.000,0.200,3430.000,0.300,1742.000,0.500,2049.000,1.000,897.000,5.000,1.000
"04/09/08","15:14:49",27365.000,"cc",28295.494,6.00,6,0.100,19149.000,0.200,3524.000,0.300,1752.000,0.500,2043.000,1.000,895.000,5.000,2.000
"04/09/08","15:14:55",26805.000,"cc",28290.123,6.00,6,0.100,18628.000,0.200,3416.000,0.300,1785.000,0.500,2121.000,1.000,855.000,5.000,0
"04/09/08","15:15:01",26928.000,"cc",28365.863,6.00,6,0.100,18834.000,0.200,3444.000,0.300,1720.000,0.500,2014.000,1.000,916.000,5.000,0
"04/09/08","15:15:07",26820.000,"cc",28390.941,6.00,6,0.100,18851.000,0.200,3334.000,0.300,1704.000,0.500,2015.000,1.000,916.000,5.000,0
"04/09/08","15:15:13",27175.000,"cc",28317.816,6.00,6,0.100,18964.000,0.200,3400.000,0.300,1820.000,0.500,2098.000,1.000,893.000,5.000,0
"04/09/08","15:15:19",27145.000,"cc",28333.281,6.00,6,0.100,18724.000,0.200,3545.000,0.300,1772.000,0.500,2177.000,1.000,927.000,5.000,0
"04/09/08","15:15:25",27051.000,"cc",28295.777,6.00,6,0.100,18811.000,0.200,3412.000,0.300,1813.000,0.500,2100.000,1.000,915.000,5.000,0
"04/09/08","15:15:31",27061.000,"cc",28211.695,6.00,6,0.100,18806.000,0.200,3489.000,0.300,1799.000,0.500,2084.000,1.000,883.000,5.000,0
"04/09/08","15:15:37",26522.000,"cc",28254.346,6.00,6,0.100,18487.000,0.200,3428.000,0.300,1679.000,0.500,2023.000,1.000,904.000,5.000,1.000
"04/09/08","15:15:43",27161.000,"cc",28355.883,6.00,6,0.100,18797.000,0.200,3479.000,0.300,1857.000,0.500,2121.000,1.000,906.000,5.000,1.000
"04/09/08","15:15:49",26800.000,"cc",28477.826,6.00,6,0.100,18811.000,0.200,3354.000,0.300,1806.000,0.500,1977.000,1.000,851.000,5.000,1.000
"04/09/08","15:15:55",26757.000,"cc",28331.344,6.00,6,0.100,18631.000,0.200,3456.000,0.300,1736.000,0.500,2075.000,1.000,859.000,5.000,0
"04/09/08","15:16:01",27248.000,"cc",28259.908,6.00,6,0.100,18977.000,0.200,3459.000,0.300,1786.000,0.500,2159.000,1.000,866.000,5.000,1.000
"04/09/08","15:16:07",26780.000,"cc",28409.447,6.00,6,0.100,18812.000,0.200,3371.000,0.300,1706.000,0.500,2049.000,1.000,842.000,5.000,0
"04/09/08","15:16:13",27135.000,"cc",28328.793,6.00,6,0.100,18896.000,0.200,3413.000,0.300,1809.000,0.500,2094.000,1.000,923.000,5.000,0